Regional Weather Roundup
Issued by NWS Jackson, KY

Home | Current Version | Previous Version | Graphics & Text | Print | Product List | Glossary On
Versions: 1 2 3 4 5 6 7 8 9 10 11 12 13 14 15 16 17 18 19 20 21 22 23 24 25 26 27 28 29 30 31 32 33 34 35 36 37 38 39 40 41 42 43 44 45 46 47 48 49 50
186
ASUS43 KJKL 171110
RWRJKL

EAST KENTUCKY HOURLY WEATHER ROUNDUP
NATIONAL WEATHER SERVICE JACKSON KY
600 AM EST TUE JAN 17 2017

NOTE: "FAIR" INDICATES FEW OR NO CLOUDS BELOW 12,000 FEET WITH
NO SIGNIFICANT WEATHER AND/OR OBSTRUCTIONS TO VISIBILITY.

* THESE REPORTS ARE NOT UNDER NWS QUALITY CONTROL AND MAY NOT
  REPORT WEATHER SUCH AS PRECIPITATION AND FOG.

KYZ079-080-083-085-087-088-110-112-115-119-120-171200
...EASTERN KENTUCKY...

CITY           SKY/WX    TMP DP  RH WIND       PRES   REMARKS
JACKSON        LGT RAIN  56  54  93 S8        30.03F FOG
LONDON         LGT RAIN  57  54  89 S5        30.05F FOG
SOMERSET*      RAIN      55  55 100 S6        30.04F
MONTICELLO*    LGT RAIN  59  56  89 VRB3      30.04S
WILLIAMSBURG*  CLOUDY    59  57  94 SW9G21    30.06S
MIDDLESBORO*   LGT RAIN  58  54  85 S9G17     30.09F
HARLAN APT*    CLOUDY    57  52  82 CALM      30.10S
PIKE CO APT*   RAIN      54  54 100 S9        30.09S
BIG SANDY APT* LGT RAIN  55  55  97 S17       30.02F
MOREHEAD APT*  LGT RAIN  57  55  94 S10       30.01F
ASHLAND*       CLOUDY    54  52  94 SE8       29.98F
$$

KYZ035-036-041-042-044-050-067-078-099-171200
...CENTRAL KENTUCKY...

CITY           SKY/WX    TMP DP  RH WIND       PRES   REMARKS
MT STERLING*   DRIZZLE   57  55  94 SW10G21   30.00S
FLEMING/MASON* CLOUDY    57  55  95 S13G21    29.97F
DANVILLE*      DRIZZLE   57  55  94 SW13G21   29.99S
LEXINGTON      LGT RAIN  58  55  90 S14       29.96F
FRANKFORT      CLOUDY    60  55  83 S12       29.93F
LOUISVILLE     CLOUDY    62  56  80 SW10G18   29.91S
LEBANON*       CLOUDY    59  57  94 S17G24    29.95F
GLASGOW*       RAIN      60  60 100 S12G18    29.97F
BOWLING GREEN  LGT RAIN  61  59  93 S13       29.96F FOG
$$

KYZ091>093-OHZ055-061-077-WVZ005-015-034-035-042-171200
...SOUTHERN OHIO/WEST VIRGINIA...

CITY           SKY/WX    TMP DP  RH WIND       PRES   REMARKS
COVINGTON      CLOUDY    58  56  93 S16       29.89F
COLUMBUS       CLOUDY    56  55  97 S9        29.91F
DAYTON         RAIN      55  54  96 S15G24    29.87F FOG
WILMINGTON     LGT RAIN  55  54  96 S15G25    29.90S
HUNTINGTON     HVY RAIN  56  54  93 S12       30.02F FOG
CHARLESTON     RAIN      49  48  97 VRB3      30.07R FOG
PINEVILLE*     DRIZZLE   50  48  93 MISG      30.17R
BECKLEY        LGT RAIN  50  46  86 SE5       30.13R
BLUEFIELD      CLOUDY    51  45  79 S6        30.14F
LOGAN CO APT*  LGT RAIN  54  52  94 S7        30.09S
$$

VAZ002-007-008-TNZ017-027-036-066-071-171200
...SOUTHWEST VIRGINIA/EAST TENNESSEE...

CITY           SKY/WX    TMP DP  RH WIND       PRES   REMARKS
WISE*          DRIZZLE   54  48  82 S8        30.12F
JONESVILLE*    LGT RAIN  50  50 100 CALM      30.15S
ABINGDON*      CLOUDY    52  50  90 E6        30.14F
BRISTOL        LGT RAIN  54  49  83 CALM      30.12F
MORRISTOWN*    CLOUDY    52  52 100 CALM      30.11S
SEVIERVILLE*   PTSUNNY   50  48  93 CALM      30.10F
KNOXVILLE      CLOUDY    63  52  67 SW16G23   30.10F
LAFOLLETTE*    CLOUDY    63  54  72 E5        30.12F
OAK RIDGE      CLOUDY    57  52  83 W3        30.13F
CROSSVILLE     CLOUDY    58  52  80 S9G22     30.09S
NASHVILLE      CLOUDY    65  59  81 S21       30.01F
$$

...KEY TO REMARKS...
VSB - VISIBILITY IN MILES
WCI - WIND CHILL INDEX
HX  - HEAT INDEX

$$




USA.gov is the U.S. government's official web portal to all federal, state and local government web resources and services.